When you browse on this site, cookies collect data to enhance your experience and personalize the content and advertising you see.
Visit our Privacy Policy to learn more. By continuing to use the site, you agree to this use of cookies and data.
  • In Hungary
  • List of Countries
  • For 7 days
  • Water Temperature
  • Weather Map
  • News
  • Weather Widgets
  • user-avatar
    Login

    Hourly Weather Heswall

    Today, 20 August, Tuesday

    Time Temperature Precipitation Wind Pressure Humidity
    00:00 +10°C° 0 mm 5 mps 760 mmHg 86%
    01:00 +11°C° 0.2 mm 4 mps 760 mmHg 87%
    02:00 +11°C° 0.2 mm 4 mps 760 mmHg 89%
    03:00 +11°C° 0.2 mm 4 mps 760 mmHg 90%
    04:00 +11°C° 0.2 mm 4 mps 761 mmHg 90%
    05:00 +11°C° 0.2 mm 4 mps 761 mmHg 90%
    06:00 +11°C° 0.2 mm 4 mps 761 mmHg 89%
    07:00 +12°C° 0.1 mm 4 mps 762 mmHg 81%
    08:00 +13°C° 0.1 mm 4 mps 762 mmHg 74%
    09:00 +15°C° 0.1 mm 5 mps 763 mmHg 66%
    10:00 +15°C° 0 mm 5 mps 763 mmHg 62%
    11:00 +16°C° 0 mm 5 mps 763 mmHg 59%
    12:00 +17°C° 0 mm 5 mps 763 mmHg 56%
    13:00 +18°C° 0 mm 4 mps 764 mmHg 55%
    14:00 +18°C° 0 mm 4 mps 764 mmHg 54%
    15:00 +19°C° 0 mm 4 mps 764 mmHg 54%
    16:00 +18°C° 0 mm 4 mps 764 mmHg 59%
    17:00 +17°C° 0 mm 3 mps 764 mmHg 65%
    18:00 +17°C° 0 mm 3 mps 764 mmHg 70%
    19:00 +16°C° 0.1 mm 3 mps 764 mmHg 74%
    20:00 +16°C° 0.1 mm 3 mps 765 mmHg 77%
    21:00 +14°C° 0.1 mm 3 mps 765 mmHg 81%
    22:00 +14°C° 0 mm 3 mps 765 mmHg 84%
    23:00 +14°C° 0 mm 3 mps 765 mmHg 86%

    Tomorrow, 21 August, Wednesday

    Time Temperature Precipitation Wind Pressure Humidity
    00:00 +14°C° 0 mm 3 mps 765 mmHg 89%
    01:00 +14°C° 0 mm 3 mps 765 mmHg 89%
    02:00 +13°C° 0 mm 3 mps 765 mmHg 90%
    03:00 +14°C° 0 mm 2 mps 765 mmHg 90%
    04:00 +13°C° 0 mm 3 mps 765 mmHg 91%
    05:00 +13°C° 0 mm 3 mps 765 mmHg 91%
    06:00 +13°C° 0 mm 3 mps 765 mmHg 92%
    07:00 +14°C° 0 mm 3 mps 765 mmHg 85%
    08:00 +17°C° 0 mm 3 mps 765 mmHg 78%
    09:00 +18°C° 0 mm 3 mps 765 mmHg 71%
    10:00 +19°C° 0 mm 4 mps 765 mmHg 67%
    11:00 +20°C° 0 mm 4 mps 764 mmHg 63%
    12:00 +20°C° 0 mm 4 mps 764 mmHg 60%
    13:00 +20°C° 0.1 mm 5 mps 764 mmHg 61%
    14:00 +20°C° 0.1 mm 5 mps 763 mmHg 63%
    15:00 +20°C° 0.1 mm 6 mps 763 mmHg 65%
    16:00 +19°C° 0.1 mm 5 mps 763 mmHg 67%
    17:00 +17°C° 0.1 mm 5 mps 762 mmHg 69%
    18:00 +16°C° 0.1 mm 5 mps 762 mmHg 71%
    19:00 +16°C° 0.1 mm 5 mps 762 mmHg 73%
    20:00 +15°C° 0.1 mm 5 mps 762 mmHg 76%
    21:00 +15°C° 0.1 mm 5 mps 762 mmHg 78%
    22:00 +15°C° 0.4 mm 5 mps 762 mmHg 80%
    23:00 +14°C° 0.4 mm 5 mps 762 mmHg 82%

    Day after tomorrow, 22 August, Thursday

    Time Temperature Precipitation Wind Pressure Humidity
    00:00 +14°C° 0.4 mm 5 mps 762 mmHg 84%
    01:00 +14°C° 0.6 mm 5 mps 762 mmHg 87%
    02:00 +15°C° 0.6 mm 5 mps 762 mmHg 90%
    03:00 +15°C° 0.6 mm 5 mps 762 mmHg 92%
    04:00 +14°C° 0.1 mm 4 mps 762 mmHg 91%
    05:00 +14°C° 0.1 mm 4 mps 762 mmHg 90%
    06:00 +13°C° 0.1 mm 3 mps 762 mmHg 89%
    07:00 +14°C° 0 mm 3 mps 763 mmHg 84%
    08:00 +16°C° 0 mm 3 mps 763 mmHg 79%
    09:00 +17°C° 0 mm 4 mps 763 mmHg 73%
    10:00 +18°C° 0 mm 4 mps 763 mmHg 67%
    11:00 +19°C° 0 mm 4 mps 763 mmHg 61%
    12:00 +20°C° 0 mm 4 mps 763 mmHg 54%
    13:00 +20°C° 0 mm 4 mps 763 mmHg 54%
    14:00 +20°C° 0 mm 4 mps 763 mmHg 55%
    15:00 +21°C° 0 mm 4 mps 763 mmHg 55%
    16:00 +20°C° 0 mm 4 mps 763 mmHg 61%
    17:00 +19°C° 0 mm 4 mps 763 mmHg 67%
    18:00 +19°C° 0 mm 4 mps 763 mmHg 73%
    19:00 +18°C° 0 mm 4 mps 764 mmHg 76%
    20:00 +17°C° 0 mm 3 mps 764 mmHg 79%
    21:00 +17°C° 0 mm 3 mps 764 mmHg 82%
    22:00 +17°C° 0 mm 3 mps 764 mmHg 84%
    23:00 +16°C° 0 mm 3 mps 764 mmHg 85%

    23 August, Friday

    Time Temperature Precipitation Wind Pressure Humidity
    00:00 +16°C° 0 mm 3 mps 764 mmHg 87%
    01:00 +16°C° 0 mm 3 mps 764 mmHg 88%
    02:00 +16°C° 0 mm 3 mps 764 mmHg 89%
    03:00 +16°C° 0 mm 2 mps 764 mmHg 91%
    04:00 +16°C° 0 mm 2 mps 764 mmHg 91%
    05:00 +16°C° 0 mm 2 mps 764 mmHg 91%
    06:00 +16°C° 0 mm 2 mps 764 mmHg 91%
    07:00 +17°C° 0 mm 2 mps 765 mmHg 86%
    08:00 +19°C° 0 mm 3 mps 765 mmHg 80%
    09:00 +20°C° 0 mm 3 mps 765 mmHg 74%
    10:00 +21°C° 0 mm 2 mps 765 mmHg 71%
    11:00 +23°C° 0 mm 2 mps 765 mmHg 67%
    12:00 +24°C° 0 mm 2 mps 765 mmHg 64%
    13:00 +24°C° 0 mm 2 mps 765 mmHg 64%
    14:00 +24°C° 0 mm 2 mps 764 mmHg 64%
    15:00 +24°C° 0 mm 2 mps 764 mmHg 64%
    16:00 +24°C° 0.1 mm 1 mps 764 mmHg 69%
    17:00 +23°C° 0.1 mm 1 mps 764 mmHg 74%
    18:00 +22°C° 0.1 mm 1 mps 764 mmHg 80%
    19:00 +21°C° 0 mm 1 mps 764 mmHg 83%
    20:00 +20°C° 0 mm 1 mps 764 mmHg 86%
    21:00 +19°C° 0 mm 1 mps 764 mmHg 89%
    22:00 +18°C° 0 mm 1 mps 764 mmHg 90%
    23:00 +18°C° 0 mm 1 mps 764 mmHg 90%

    24 August, Saturday

    Time Temperature Precipitation Wind Pressure Humidity
    00:00 +18°C° 0 mm 1 mps 764 mmHg 90%
    01:00 +16°C° 0 mm 1 mps 763 mmHg 91%
    02:00 +16°C° 0 mm 1 mps 763 mmHg 91%
    03:00 +16°C° 0 mm 2 mps 763 mmHg 91%
    04:00 +16°C° 0 mm 2 mps 763 mmHg 91%
    05:00 +16°C° 0 mm 2 mps 762 mmHg 90%
    06:00 +16°C° 0 mm 2 mps 762 mmHg 89%
    07:00 +17°C° 0 mm 2 mps 762 mmHg 86%
    08:00 +19°C° 0 mm 3 mps 762 mmHg 82%
    09:00 +20°C° 0 mm 3 mps 762 mmHg 78%
    10:00 +21°C° 0 mm 3 mps 762 mmHg 73%
    11:00 +22°C° 0 mm 3 mps 761 mmHg 67%
    12:00 +23°C° 0 mm 4 mps 761 mmHg 61%
    13:00 +25°C° 0 mm 3 mps 761 mmHg 59%
    14:00 +25°C° 0 mm 3 mps 760 mmHg 56%
    15:00 +25°C° 0 mm 3 mps 760 mmHg 53%
    16:00 +24°C° 0 mm 2 mps 760 mmHg 59%
    17:00 +23°C° 0 mm 2 mps 759 mmHg 65%
    18:00 +22°C° 0 mm 1 mps 759 mmHg 71%
    19:00 +21°C° 0 mm 1 mps 759 mmHg 75%
    20:00 +20°C° 0 mm 1 mps 759 mmHg 79%
    21:00 +18°C° 0 mm 1 mps 759 mmHg 83%
    22:00 +18°C° 0 mm 1 mps 759 mmHg 85%
    23:00 +18°C° 0 mm 1 mps 759 mmHg 86%

    25 August, Sunday

    Time Temperature Precipitation Wind Pressure Humidity
    00:00 +15°C° 0 mm 0 mps 759 mmHg 87%
    01:00 +16°C° 0 mm 1 mps 759 mmHg 87%
    02:00 +16°C° 0 mm 1 mps 759 mmHg 88%
    03:00 +16°C° 0 mm 1 mps 759 mmHg 88%
    04:00 +16°C° 0.1 mm 1 mps 759 mmHg 88%
    05:00 +16°C° 0.1 mm 1 mps 759 mmHg 88%
    06:00 +16°C° 0.1 mm 1 mps 759 mmHg 87%
    07:00 +17°C° 0 mm 2 mps 759 mmHg 83%
    08:00 +18°C° 0 mm 3 mps 759 mmHg 78%
    09:00 +19°C° 0 mm 4 mps 759 mmHg 74%
    10:00 +19°C° 0 mm 4 mps 759 mmHg 74%
    11:00 +19°C° 0 mm 4 mps 760 mmHg 74%
    12:00 +19°C° 0 mm 5 mps 760 mmHg 74%
    13:00 +19°C° 0 mm 5 mps 760 mmHg 72%
    14:00 +19°C° 0 mm 5 mps 760 mmHg 70%
    15:00 +19°C° 0 mm 5 mps 760 mmHg 68%
    16:00 +18°C° 0 mm 4 mps 760 mmHg 70%
    17:00 +17°C° 0 mm 4 mps 760 mmHg 73%
    18:00 +15°C° 0 mm 4 mps 761 mmHg 76%
    19:00 +14°C° 0 mm 3 mps 761 mmHg 80%
    20:00 +13°C° 0 mm 3 mps 762 mmHg 83%
    21:00 +12°C° 0 mm 3 mps 762 mmHg 87%
    22:00 +12°C° 0 mm 3 mps 762 mmHg 88%
    23:00 +12°C° 0 mm 3 mps 762 mmHg 88%
    Show more